Regional Weather Roundup
Issued by NWS

Home | Current Version | Previous Version | Graphics & Text | Print | Product List | Glossary On
Versions: 1 2 3 4 5 6 7 8 9 10 11 12 13 14 15 16 17 18 19 20 21 22 23 24 25 26 27 28 29 30 31 32 33 34 35 36 37 38 39 40 41 42 43 44 45 46 47 48 49 50
000
ASUS43 KOAX 300802
RWRNE

WEATHER ROUNDUP FOR NEBRASKA
NATIONAL WEATHER SERVICE OMAHA NE
300 AM CDT FRI SEP 30 2016

NOTES: SATELLITE DATA IS BEING USED TO AUGMENT CLOUD COVER ABOVE
       12000 FEET.
       "FAIR" INDICATES FEW OR NO CLOUDS BELOW 12,000 FEET WITH NO
       SIGNIFICANT WEATHER AND/OR OBSTRUCTIONS TO VISIBILITY.

  * THESE STATIONS DO NOT REPORT WEATHER SUCH AS RAIN...SNOW OR FOG.

NEZ001>004-019>022-054>056-300900-
NEBRASKA PANHANDLE

CITY           SKY/WX    TMP DP  RH WIND       PRES   REMARKS
SCOTTSBLUFF    PTCLDY    52  41  66 E9        30.22F
ALLIANCE       CLOUDY    50  40  68 SE10      30.23S
CHADRON        PTCLDY    60  40  47 SW8       30.17F
KIMBALL        CLOUDY    52  43  72 SE12      30.23S
SIDNEY         CLOUDY    50  39  66 SE5       30.25S
$$

NEZ057>060-069>072-079>082-300900-
SOUTHWEST NEBRASKA

CITY           SKY/WX    TMP DP  RH WIND       PRES   REMARKS
NORTH PLATTE   CLEAR     43  40  89 E6        30.29F
IMPERIAL       CLEAR     47  41  80 SE7       30.28R
LEXINGTON      CLEAR     44  41  91 CALM      30.31S
MCCOOK         CLEAR     47  43  86 E7        30.29F
OGALLALA       CLEAR     51  43  73 SE6       30.27F
$$

NEZ005>010-023>029-035>040-094-300900-
NORTH CENTRAL NEBRASKA

CITY           SKY/WX    TMP DP  RH WIND       PRES   REMARKS
VALENTINE      CLEAR     50  42  74 SE8       30.27F
AINSWORTH      CLEAR     48  44  87 S9        30.29F
BROKEN BOW     CLEAR     37  36  96 N3        30.31S
O`NEILL        CLEAR     47  44  87 SE5       30.32F
ORD            FOG       40  37  89 CALM      30.31S VSB 3/4
THEDFORD       CLEAR     45  40  85 SE3       30.30S
$$

NEZ041-046>049-061>064-073>077-083>087-300900-
SOUTH CENTRAL NEBRASKA

CITY           SKY/WX    TMP DP  RH WIND       PRES   REMARKS
GRAND ISLAND   CLEAR     47  43  86 CALM      30.33S
AURORA         CLEAR     44  43  94 CALM      30.32S
HASTINGS       CLEAR     47  41  80 CALM      30.33S
HEBRON         CLEAR     44  43  96 CALM      30.32F
HOLDREGE       CLOUDY    43  40  90 CALM      30.31S
KEARNEY *      CLEAR     45  39  81 CALM      30.32S
YORK           CLEAR     43  41  93 CALM      30.33S
$$

NEZ011>018-030>034-042>045-300900-
NORTHEAST NEBRASKA

CITY           SKY/WX    TMP DP  RH WIND       PRES   REMARKS
NORFOLK        CLEAR     44  42  93 CALM      30.33F
ALBION         CLEAR     40  38  93 CALM      30.33F
BLAIR          CLEAR     52  47  81 NE7       30.31F
FREMONT        CLEAR     46  45  95 CALM      30.33S
TEKAMAH        PTCLDY    45  42  89 NW7       30.32F
WAYNE          CLEAR     39  38  97 CALM      30.35F
$$

NEZ050>053-065>068-078-088>093-300900-
SOUTHEAST NEBRASKA

CITY           SKY/WX    TMP DP  RH WIND       PRES   REMARKS
LINCOLN        CLEAR     45  43  93 N6        30.33S
OMAHA EPPLEY   CLEAR     49  45  86 N6        30.31F
BEATRICE       CLEAR     45  44  95 CALM      30.31F
FALLS CITY     CLEAR     50  46  86 NW6       30.28F
NEBRASKA CITY  CLEAR     51  43  73 N6        30.30F
PLATTSMOUTH    CLEAR     50  44  80 NW3       30.31S
$$

NEZ044-045-051>053-067-300900-
OMAHA AREA

CITY           SKY/WX    TMP DP  RH WIND       PRES   REMARKS
OMAHA EPPLEY   CLEAR     49  45  86 N6        30.31F
BLAIR          CLEAR     52  47  81 NE7       30.31F
FREMONT        CLEAR     46  45  95 CALM      30.33S
MILLARD        CLEAR     49  47  93 CALM      30.32S
OFFUTT AFB     CLEAR     49  48  97 NW6       30.30S
PLATTSMOUTH    CLEAR     50  44  80 NW3       30.31S
WAHOO          FAIR      46  44  93 NW5       30.32F
$$



USA.gov is the U.S. government's official web portal to all federal, state and local government web resources and services.